Regional Weather Roundup
Issued by NWS Sioux Falls, SD

Home | Current Version | Previous Version | Text Only | Print | Product List | Glossary Off
Versions: 1 2 3 4 5 6 7 8 9 10 11 12 13 14 15 16 17 18 19 20 21 22 23 24 25 26 27 28 29 30 31 32 33 34 35 36 37 38 39 40 41 42 43 44 45 46 47 48 49 50

000
ASUS43 KFSD 040202
RWRFSD

WEATHER ROUNDUP FOR SE SOUTH DAKOTA/SW MINNESOTA/NW IOWA
NATIONAL WEATHER SERVICE SIOUX FALLS SD
800 PM CST SAT DEC 03 2016

NOTE: "FAIR" INDICATES FEW OR NO CLOUDS BELOW 12,000 FEET WITH NO
SIGNIFICANT WEATHER AND OR OBSTRUCTIONS TO VISIBILITY.


SDZ038>040-050-052>070-040300-
SOUTHEAST SOUTH DAKOTA

CITY           SKY/WX    TMP DP  RH WIND       PRES   REMARKS
CHAMBERLAIN    MOCLDY    32  31  95 CALM      29.91F
HURON          PTCLDY    34  33  96 S13       29.95F WCI  25
MADISON        CLOUDY    32  32 100 S18G25    29.99F WCI  20
MITCHELL       CLOUDY    37  34  89 S17G25    29.98F
SIOUX FALLS    NOT AVBL
WINNER         FAIR      29  22  75 W6        29.93S WCI  23
YANKTON        CLOUDY    36  30  80 S15       30.04S
$$

MNZ071-072-080-081-089-090-097-098-040300-
SOUTHWEST MINNESOTA

CITY           SKY/WX    TMP DP  RH WIND       PRES   REMARKS
FAIRMONT       CLOUDY    33  32  96 S13       30.13F WCI  24
JACKSON        CLOUDY    32  32 100 S10       30.10F WCI  24
LUVERNE        CLOUDY    32  32 100 S13       30.07S FOG     WCI  22
MARSHALL       CLOUDY    34  31  88 S15       30.05F WCI  24
MONTEVIDEO       N/A     34  34 100 S9        30.07F FOG     WCI  26
PIPESTONE      LGT SNOW  34  32  93 S17       30.02F WCI  23
REDWOOD FALLS  LGT SNOW  33  31  92 SE9       30.09F FOG     WCI  25
TRACY          CLOUDY    34  32  92 S12G18    30.05F FOG     WCI  26
WINDOM         CLOUDY    34  32  93 CALM      30.09F
WORTHINGTON    MIX PCPN  32  31  96 S14       30.07F FOG     WCI  22
$$

IAZ001>003-012>014-020>022-031-032-NEZ013-014-SDZ071-040300-
NORTHWEST IOWA

CITY           SKY/WX    TMP DP  RH WIND       PRES   REMARKS
CHEROKEE       LGT SNOW  32  32 100 S6        30.11F WCI  27
DENISON        LGT SNOW  34  34 100 SE8       30.10F WCI  27
ESTHERVILLE    CLOUDY    32  32 100 S9        30.11F WCI  24
LE MARS        CLOUDY    34  32  93 S9G16     30.10F WCI  26
ORANGE CITY    CLOUDY    34  34 100 S5        30.08F FOG     WCI  30
SHELDON        CLOUDY    32  32 100 S15       30.07F FOG     WCI  22
SIOUX CITY     LGT SNOW  34  33  96 SE10      30.10F FOG     WCI  26
SPENCER        LGT SNOW  33  33 100 S15       30.11F FOG     WCI  23
STORM LAKE     LGT SNOW  32  32 100 SE12      30.11F VSB 3/4 WCI  23
$$

ABBREVIATIONS USED IN REMARKS
   TC - TEMPERATURE IN CELSIUS
  WCI - WIND CHILL INDEX
   HX - HEAT INDEX
  VSB - VISIBILITY





USA.gov is the U.S. government's official web portal to all federal, state and local government web resources and services.